Weather in Oleshnia

Ukraine / Sumi District     50°24′34″N   34°44′41″E
temp.,
°C
wind,
m/s
gust,
m/s
humid.,
%
clouds,
%
prec.,
mm/h
press.,
hPa
HPBL,
m
27 october, wed
wed2700:00+2ssw4105526 0.0 1029176
03:00+1ssw4105426 0.0 1028162
06:000ssw411535 0.0 1027197
09:00+3ssw512570 0.0 1026328
12:00+8sw79580 0.0 1025744
15:00+10wsw686060 0.0 10231104
18:00+8wsw47667 0.0 1023252
21:00+7wsw367480 0.0 1023179
28 october, thu
thu2800:00+5w348054 0.0 102463
03:00+4w3384100 0.0 102451
06:00+4wsw3689100 0.0 1023107
09:00+6sw51082100 0.1 1022300
12:00+8wsw61274100 0.2 1021521
15:00+11w51072100 0.2 1020728
18:00+9wnw4985100 0.1 1021435
21:00+9nw4108783 0.1 1022431
29 october, fri
fri2900:00+7nw35940 0.0 1023103
03:00+6nnw35978 0.0 1025102
06:00+5n34935 0.0 102671
09:00+6nne36815 0.0 1028179
12:00+11ene34600 0.0 1029674
15:00+12ene33583 0.0 1029960
18:00+8ene22740 0.0 102914
21:00+6ese35850 0.0 103172
30 october, sat
sat3000:00+5se34900 0.0 103269
03:00+4se33910 0.0 103239
06:00+4se33930 0.0 103245
09:00+5se25880 0.0 1033132
12:00+11sse34620 0.0 1033565
15:00+13sse34520 0.0 1032874
18:00+8se33650 0.0 103222
21:00+7se33690 0.0 103232
31 october, sun
sun3100:00+6se33730 0.0 103225
03:00+5se22770 0.0 103321
05:00+4ese33840 0.0 103227
08:00+5ese36800 0.0 1032151
11:00+11se56570 0.0 1030611
14:00+13se45460 0.0 1028805
17:00+8e46620 0.0 102795
20:00+7ese49730 0.0 1027146